Time,TemperatureF,DewpointF,PressureIn,WindDirection,WindDirectionDegrees,WindSpeedMPH,WindSpeedGustMPH,Humidity,HourlyPrecipIn,Conditions,Clouds,dailyrainin,SolarRadiationWatts/m^2,SoftwareType,DateUTC
2013-06-11 00:04:00,61.8,60.1,29.78,East,92,0.0,2.0,94,0.00,RA,RA,0.00,0.0,WeatherDisplay:10.37,2013-06-11 05:04:00,
2013-06-11 00:09:00,61.5,59.8,29.78,East,92,0.0,0.0,94,0.00,CLR,CLR,0.00,0.0,WeatherDisplay:10.37,2013-06-11 05:09:00,
2013-06-11 00:14:00,61.5,60.0,29.78,East,92,0.0,1.0,95,0.00,CLR,CLR,0.00,0.0,WeatherDisplay:10.37,2013-06-11 05:14:00,
2013-06-11 00:19:00,61.4,60.0,29.78,East,92,0.0,0.0,95,0.00,CLR,CLR,0.00,0.0,WeatherDisplay:10.37,2013-06-11 05:19:00,
2013-06-11 00:24:00,61.4,60.2,29.78,East,92,0.0,0.0,96,0.00,CLR,CLR,0.00,0.0,WeatherDisplay:10.37,2013-06-11 05:24:00,
2013-06-11 00:29:00,61.6,60.4,29.78,East,92,0.0,0.0,96,0.00,CLR,CLR,0.00,0.0,WeatherDisplay:10.37,2013-06-11 05:29:00,
2013-06-11 00:34:00,61.8,60.6,29.79,East,92,0.0,1.0,96,0.00,CLR,CLR,0.00,0.0,WeatherDisplay:10.37,2013-06-11 05:34:00,
2013-06-11 00:39:00,61.7,60.5,29.79,East,92,0.0,1.0,96,0.00,CLR,CLR,0.00,0.0,WeatherDisplay:10.37,2013-06-11 05:39:00,
2013-06-11 00:44:00,61.2,59.8,29.79,East,92,0.0,2.0,95,0.00,CLR,CLR,0.00,0.0,WeatherDisplay:10.37,2013-06-11 05:44:00,
2013-06-11 00:49:00,61.1,60.0,29.79,East,92,0.0,0.0,96,0.00,CLR,CLR,0.00,0.0,WeatherDisplay:10.37,2013-06-11 05:49:00,
2013-06-11 00:54:00,61.0,59.9,29.79,East,92,0.0,0.0,96,0.00,CLR,CLR,0.00,0.0,WeatherDisplay:10.37,2013-06-11 05:54:00,
2013-06-11 00:59:00,60.9,59.8,29.79,East,92,0.0,0.0,96,0.00,CLR,CLR,0.00,0.0,WeatherDisplay:10.37,2013-06-11 05:59:00,
2013-06-11 01:04:00,60.8,59.6,29.79,East,92,0.0,0.0,96,0.00,CLR,CLR,0.00,0.0,WeatherDisplay:10.37,2013-06-11 06:04:00,
2013-06-11 01:09:00,60.6,59.5,29.79,East,92,0.0,0.0,96,0.00,CLR,CLR,0.00,0.0,WeatherDisplay:10.37,2013-06-11 06:09:00,
2013-06-11 01:14:00,60.4,59.3,29.79,East,92,0.0,0.0,96,0.00,CLR,CLR,0.00,0.0,WeatherDisplay:10.37,2013-06-11 06:14:00,
2013-06-11 01:19:00,60.3,59.2,29.79,East,92,0.0,0.0,96,0.00,CLR,CLR,0.00,0.0,WeatherDisplay:10.37,2013-06-11 06:19:00,
2013-06-11 01:24:00,60.1,59.0,29.79,East,92,0.0,0.0,96,0.00,CLR,CLR,0.00,0.0,WeatherDisplay:10.37,2013-06-11 06:24:00,
2013-06-11 01:29:00,60.0,58.9,29.80,East,92,0.0,0.0,96,0.00,CLR,CLR,0.00,0.0,WeatherDisplay:10.37,2013-06-11 06:29:00,
2013-06-11 01:34:00,60.2,59.3,29.79,East,92,0.0,0.0,97,0.00,CLR,CLR,0.00,0.0,WeatherDisplay:10.37,2013-06-11 06:34:00,
2013-06-11 01:39:00,60.2,59.3,29.79,East,92,0.0,0.0,97,0.00,CLR,CLR,0.00,0.0,WeatherDisplay:10.37,2013-06-11 06:39:00,
2013-06-11 01:49:00,60.3,59.4,29.79,East,92,0.0,0.0,97,0.00,CLR,CLR,0.00,0.0,WeatherDisplay:10.37,2013-06-11 06:49:00,
2013-06-11 01:54:00,60.4,59.6,29.79,East,92,0.0,0.0,97,0.00,CLR,CLR,0.00,0.0,WeatherDisplay:10.37,2013-06-11 06:54:00,
2013-06-11 01:59:00,60.7,59.8,29.79,East,92,0.0,0.0,97,0.00,CLR,CLR,0.00,0.0,WeatherDisplay:10.37,2013-06-11 06:59:00,
2013-06-11 02:04:00,60.9,60.3,29.79,East,92,0.0,0.0,98,0.00,CLR,CLR,0.00,0.0,WeatherDisplay:10.37,2013-06-11 07:04:00,
2013-06-11 02:09:00,61.1,60.5,29.79,East,92,0.0,0.0,98,0.00,CLR,CLR,0.00,0.0,WeatherDisplay:10.37,2013-06-11 07:09:00,
2013-06-11 02:14:00,61.0,60.1,29.80,East,92,0.0,0.0,97,0.00,CLR,CLR,0.00,0.0,WeatherDisplay:10.37,2013-06-11 07:14:00,
2013-06-11 02:19:00,60.9,60.0,29.80,East,92,0.0,0.0,97,0.00,CLR,CLR,0.00,0.0,WeatherDisplay:10.37,2013-06-11 07:19:00,
2013-06-11 02:24:00,60.9,60.0,29.80,East,92,0.0,0.0,97,0.00,CLR,CLR,0.00,0.0,WeatherDisplay:10.37,2013-06-11 07:24:00,
2013-06-11 02:29:00,60.8,59.9,29.80,East,92,0.0,0.0,97,0.00,CLR,CLR,0.00,0.0,WeatherDisplay:10.37,2013-06-11 07:29:00,
2013-06-11 02:34:00,60.7,59.8,29.80,East,92,0.0,0.0,97,0.00,CLR,CLR,0.00,0.0,WeatherDisplay:10.37,2013-06-11 07:34:00,
2013-06-11 02:39:00,60.7,59.8,29.80,East,92,0.0,0.0,97,0.00,CLR,CLR,0.00,0.0,WeatherDisplay:10.37,2013-06-11 07:39:00,
2013-06-11 02:44:00,60.9,60.3,29.80,East,92,0.0,0.0,98,0.00,CLR,CLR,0.00,0.0,WeatherDisplay:10.37,2013-06-11 07:44:00,
2013-06-11 02:49:00,60.7,59.9,29.80,East,92,0.0,0.0,97,0.00,CLR,CLR,0.00,0.0,WeatherDisplay:10.37,2013-06-11 07:49:00,
2013-06-11 02:54:00,60.6,59.8,29.80,East,92,0.0,0.0,97,0.00,CLR,CLR,0.00,0.0,WeatherDisplay:10.37,2013-06-11 07:54:00,
2013-06-11 02:59:00,60.4,59.6,29.81,East,92,0.0,0.0,97,0.00,CLR,CLR,0.00,0.0,WeatherDisplay:10.37,2013-06-11 07:59:00,
2013-06-11 03:04:00,60.3,59.4,29.81,East,92,0.0,0.0,97,0.00,CLR,CLR,0.00,0.0,WeatherDisplay:10.37,2013-06-11 08:04:00,
2013-06-11 03:09:00,60.2,59.3,29.81,East,92,0.0,0.0,97,0.00,CLR,CLR,0.00,0.0,WeatherDisplay:10.37,2013-06-11 08:09:00,
2013-06-11 03:14:00,60.2,59.3,29.81,East,92,0.0,0.0,97,0.00,CLR,CLR,0.00,0.0,WeatherDisplay:10.37,2013-06-11 08:14:00,
2013-06-11 03:19:00,60.1,59.2,29.81,East,92,0.0,0.0,97,0.00,CLR,CLR,0.00,0.0,WeatherDisplay:10.37,2013-06-11 08:19:00,
2013-06-11 03:24:00,60.1,59.2,29.81,East,92,0.0,0.0,97,0.00,CLR,CLR,0.00,0.0,WeatherDisplay:10.37,2013-06-11 08:24:00,
2013-06-11 03:29:00,60.2,59.6,29.81,East,92,0.0,0.0,98,0.00,CLR,CLR,0.00,0.0,WeatherDisplay:10.37,2013-06-11 08:29:00,
2013-06-11 03:34:00,60.2,59.6,29.81,East,92,0.0,0.0,98,0.00,CLR,CLR,0.00,0.0,WeatherDisplay:10.37,2013-06-11 08:34:00,
2013-06-11 03:39:00,60.2,59.6,29.82,East,93,1.0,3.0,98,0.00,CLR,CLR,0.00,0.0,WeatherDisplay:10.37,2013-06-11 08:39:00,
2013-06-11 03:44:00,60.2,59.3,29.82,East,94,0.0,2.0,97,0.00,CLR,CLR,0.00,0.0,WeatherDisplay:10.37,2013-06-11 08:44:00,
2013-06-11 03:49:00,60.3,59.7,29.82,East,96,0.0,1.0,98,0.00,CLR,CLR,0.00,0.0,WeatherDisplay:10.37,2013-06-11 08:49:00,
2013-06-11 03:54:00,60.2,59.7,29.82,East,98,0.0,2.0,98,0.00,CLR,CLR,0.00,0.0,WeatherDisplay:10.37,2013-06-11 08:54:00,
2013-06-11 03:59:00,60.4,59.8,29.82,SSE,158,1.0,3.0,98,0.00,CLR,CLR,0.00,0.0,WeatherDisplay:10.37,2013-06-11 08:59:00,
2013-06-11 04:04:00,60.8,60.2,29.82,South,188,0.0,3.0,98,0.00,CLR,CLR,0.00,0.0,WeatherDisplay:10.37,2013-06-11 09:04:00,
2013-06-11 04:09:00,60.7,59.8,29.82,SW,215,0.0,1.0,97,0.00,CLR,CLR,0.00,0.0,WeatherDisplay:10.37,2013-06-11 09:09:00,
2013-06-11 04:14:00,60.5,59.6,29.82,SW,215,0.0,0.0,97,0.00,CLR,CLR,0.00,0.0,WeatherDisplay:10.37,2013-06-11 09:14:00,
2013-06-11 04:19:00,60.4,59.5,29.82,SW,215,0.0,0.0,97,0.00,CLR,CLR,0.00,0.0,WeatherDisplay:10.37,2013-06-11 09:19:00,
2013-06-11 04:24:00,60.2,59.3,29.83,SW,215,0.0,1.0,97,0.00,CLR,CLR,0.00,0.0,WeatherDisplay:10.37,2013-06-11 09:24:00,
2013-06-11 04:29:00,60.0,59.1,29.83,SW,215,0.0,0.0,97,0.00,CLR,CLR,0.00,0.0,WeatherDisplay:10.37,2013-06-11 09:29:00,
2013-06-11 04:34:00,60.0,59.1,29.83,SW,217,0.0,2.0,97,0.00,CLR,CLR,0.00,0.0,WeatherDisplay:10.37,2013-06-11 09:34:00,
2013-06-11 04:39:00,60.0,59.1,29.83,SW,220,0.0,0.0,97,0.00,CLR,CLR,0.00,0.0,WeatherDisplay:10.37,2013-06-11 09:39:00,
2013-06-11 04:44:00,59.9,59.0,29.82,SW,220,0.0,0.0,97,0.00,CLR,CLR,0.00,0.0,WeatherDisplay:10.37,2013-06-11 09:44:00,
2013-06-11 04:49:00,59.9,59.0,29.82,SW,220,0.0,0.0,97,0.00,CLR,CLR,0.00,0.0,WeatherDisplay:10.37,2013-06-11 09:49:00,
2013-06-11 04:54:00,59.8,58.9,29.82,SW,220,0.0,0.0,97,0.00,CLR,CLR,0.00,0.0,WeatherDisplay:10.37,2013-06-11 09:54:00,
2013-06-11 04:59:00,59.7,58.8,29.82,SW,220,0.0,0.0,97,0.00,CLR,CLR,0.00,0.0,WeatherDisplay:10.37,2013-06-11 09:59:00,
2013-06-11 05:04:00,59.6,58.7,29.83,SW,220,0.0,0.0,97,0.00,CLR,CLR,0.00,0.0,WeatherDisplay:10.37,2013-06-11 10:04:00,
2013-06-11 05:09:00,59.6,59.0,29.83,SW,220,0.0,0.0,98,0.00,CLR,CLR,0.00,0.0,WeatherDisplay:10.37,2013-06-11 10:09:00,
2013-06-11 05:14:00,59.5,58.6,29.83,SW,220,0.0,1.0,97,0.00,CLR,CLR,0.00,0.0,WeatherDisplay:10.37,2013-06-11 10:14:00,
2013-06-11 05:19:00,59.5,58.6,29.82,SW,220,0.0,0.0,97,0.00,CLR,CLR,0.00,0.0,WeatherDisplay:10.37,2013-06-11 10:19:00,
2013-06-11 05:24:00,59.4,58.5,29.82,SW,220,0.0,0.0,97,0.00,CLR,CLR,0.00,0.0,WeatherDisplay:10.37,2013-06-11 10:24:00,
2013-06-11 05:29:00,59.4,58.6,29.83,SW,220,0.0,0.0,97,0.00,CLR,CLR,0.00,0.0,WeatherDisplay:10.37,2013-06-11 10:29:00,
2013-06-11 05:34:00,59.5,58.9,29.82,SW,220,0.0,0.0,98,0.00,CLR,CLR,0.00,0.0,WeatherDisplay:10.37,2013-06-11 10:34:00,
2013-06-11 05:39:00,59.5,59.0,29.83,SW,220,0.0,0.0,98,0.00,CLR,CLR,0.00,0.0,WeatherDisplay:10.37,2013-06-11 10:39:00,
2013-06-11 05:44:00,59.5,58.9,29.83,SW,220,0.0,0.0,98,0.00,CLR,CLR,0.00,0.0,WeatherDisplay:10.37,2013-06-11 10:44:00,
2013-06-11 05:49:00,59.5,58.9,29.83,SW,220,0.0,0.0,98,0.00,CLR,CLR,0.00,0.0,WeatherDisplay:10.37,2013-06-11 10:49:00,
2013-06-11 05:54:00,59.7,59.1,29.83,SW,220,0.0,0.0,98,0.00,CLR,CLR,0.00,0.0,WeatherDisplay:10.37,2013-06-11 10:54:00,
2013-06-11 05:59:00,60.0,59.4,29.83,SW,220,0.0,0.0,98,0.00,CLR,CLR,0.00,0.0,WeatherDisplay:10.37,2013-06-11 10:59:00,
2013-06-11 06:04:00,60.1,59.5,29.83,SW,220,0.0,0.0,98,0.00,CLR,CLR,0.00,0.0,WeatherDisplay:10.37,2013-06-11 11:04:00,
2013-06-11 06:09:00,60.1,59.5,29.83,SW,220,0.0,0.0,98,0.00,CLR,CLR,0.00,0.0,WeatherDisplay:10.37,2013-06-11 11:09:00,
2013-06-11 06:14:00,60.3,59.7,29.83,SW,220,0.0,1.0,98,0.00,CLR,CLR,0.00,0.0,WeatherDisplay:10.37,2013-06-11 11:14:00,
2013-06-11 06:19:00,60.8,60.2,29.84,SW,220,0.0,1.0,98,0.00,CLR,CLR,0.00,0.0,WeatherDisplay:10.37,2013-06-11 11:19:00,
2013-06-11 06:24:00,61.3,60.7,29.84,SW,220,0.0,1.0,98,0.00,CLR,CLR,0.00,0.0,WeatherDisplay:10.37,2013-06-11 11:24:00,
2013-06-11 06:29:00,61.8,61.3,29.84,SW,220,1.0,2.0,98,0.00,CLR,CLR,0.00,0.0,WeatherDisplay:10.37,2013-06-11 11:29:00,
2013-06-11 06:34:00,62.3,61.8,29.84,SW,221,1.0,3.0,98,0.00,CLR,CLR,0.00,0.0,WeatherDisplay:10.37,2013-06-11 11:34:00,
2013-06-11 06:39:00,62.7,62.1,29.84,SW,231,2.0,4.0,98,0.00,CLR,CLR,0.00,0.0,WeatherDisplay:10.37,2013-06-11 11:39:00,
2013-06-11 06:44:00,63.1,62.5,29.84,WSW,242,3.0,4.0,98,0.00,CLR,CLR,0.00,0.0,WeatherDisplay:10.37,2013-06-11 11:44:00,
2013-06-11 06:49:00,63.4,62.9,29.84,WSW,247,2.0,4.0,98,0.00,CLR,CLR,0.00,0.0,WeatherDisplay:10.37,2013-06-11 11:49:00,
2013-06-11 06:54:00,63.8,63.2,29.84,WSW,246,2.0,5.0,98,0.00,CLR,CLR,0.00,0.0,WeatherDisplay:10.37,2013-06-11 11:54:00,
2013-06-11 06:59:00,64.1,63.3,29.84,WSW,247,2.0,4.0,97,0.00,CLR,CLR,0.00,0.0,WeatherDisplay:10.37,2013-06-11 11:59:00,
2013-06-11 07:04:00,64.7,63.8,29.85,WSW,250,2.0,4.0,97,0.00,CLR,CLR,0.00,0.0,WeatherDisplay:10.37,2013-06-11 12:04:00,
2013-06-11 07:09:00,65.2,64.0,29.84,WSW,253,2.0,5.0,96,0.00,CLR,CLR,0.00,0.0,WeatherDisplay:10.37,2013-06-11 12:09:00,
2013-06-11 07:14:00,65.7,64.2,29.84,WSW,250,5.0,7.0,95,0.00,CLR,CLR,0.00,0.0,WeatherDisplay:10.37,2013-06-11 12:14:00,
2013-06-11 07:19:00,66.1,64.3,29.85,WSW,249,5.0,7.0,94,0.00,CLR,CLR,0.00,0.0,WeatherDisplay:10.37,2013-06-11 12:19:00,
2013-06-11 07:24:00,66.6,64.2,29.85,WSW,249,3.0,6.0,92,0.00,CLR,CLR,0.00,0.0,WeatherDisplay:10.37,2013-06-11 12:24:00,
2013-06-11 07:29:00,67.1,64.7,29.85,WSW,247,2.0,6.0,92,0.00,CLR,CLR,0.00,0.0,WeatherDisplay:10.37,2013-06-11 12:29:00,
2013-06-11 07:34:00,67.8,64.7,29.85,WSW,256,2.0,6.0,90,0.00,CLR,CLR,0.00,0.0,WeatherDisplay:10.37,2013-06-11 12:34:00,
2013-06-11 07:39:00,68.4,65.0,29.85,West,260,3.0,6.0,89,0.00,CLR,CLR,0.00,0.0,WeatherDisplay:10.37,2013-06-11 12:39:00,
2013-06-11 07:44:00,68.9,64.9,29.85,WSW,247,5.0,6.0,87,0.00,CLR,CLR,0.00,0.0,WeatherDisplay:10.37,2013-06-11 12:44:00,
2013-06-11 07:49:00,69.3,65.3,29.85,WSW,247,2.0,5.0,87,0.00,CLR,CLR,0.00,0.0,WeatherDisplay:10.37,2013-06-11 12:49:00,
2013-06-11 07:54:00,69.9,65.1,29.85,WSW,242,2.0,5.0,85,0.00,CLR,CLR,0.00,0.0,WeatherDisplay:10.37,2013-06-11 12:54:00,
2013-06-11 07:59:00,70.3,65.2,29.85,WSW,246,3.0,6.0,84,0.00,CLR,CLR,0.00,0.0,WeatherDisplay:10.37,2013-06-11 12:59:00,
2013-06-11 08:04:00,70.7,65.3,29.85,WSW,255,2.0,6.0,83,0.00,CLR,CLR,0.00,0.0,WeatherDisplay:10.37,2013-06-11 13:04:00,
2013-06-11 08:09:00,71.2,66.1,29.85,WSW,252,1.0,4.0,84,0.00,CLR,CLR,0.00,0.0,WeatherDisplay:10.37,2013-06-11 13:09:00,
2013-06-11 08:14:00,71.5,66.1,29.85,WSW,249,2.0,5.0,83,0.00,CLR,CLR,0.00,0.0,WeatherDisplay:10.37,2013-06-11 13:14:00,
2013-06-11 08:19:00,72.0,65.8,29.85,WSW,257,2.0,6.0,81,0.00,CLR,CLR,0.00,0.0,WeatherDisplay:10.37,2013-06-11 13:19:00,
2013-06-11 08:24:00,72.3,66.1,29.85,WSW,249,3.0,7.0,81,0.00,CLR,CLR,0.00,0.0,WeatherDisplay:10.37,2013-06-11 13:24:00,
2013-06-11 08:29:00,72.5,66.0,29.85,WSW,249,2.0,7.0,80,0.00,CLR,CLR,0.00,0.0,WeatherDisplay:10.37,2013-06-11 13:29:00,
2013-06-11 08:34:00,72.9,66.3,29.85,WSW,249,5.0,8.0,80,0.00,CLR,CLR,0.00,0.0,WeatherDisplay:10.37,2013-06-11 13:34:00,
2013-06-11 08:39:00,73.3,66.1,29.85,WSW,252,2.0,6.0,78,0.00,CLR,CLR,0.00,0.0,WeatherDisplay:10.37,2013-06-11 13:39:00,
2013-06-11 08:49:00,74.0,65.2,29.85,West,259,6.0,9.0,74,0.00,CLR,CLR,0.00,0.0,WeatherDisplay:10.37,2013-06-11 13:49:00,
2013-06-11 08:54:00,73.9,65.1,29.84,West,278,3.0,7.0,74,0.00,CLR,CLR,0.00,0.0,WeatherDisplay:10.37,2013-06-11 13:54:00,
2013-06-11 08:59:00,74.3,66.2,29.85,West,269,5.0,7.0,76,0.00,CLR,CLR,0.00,0.0,WeatherDisplay:10.37,2013-06-11 13:59:00,
2013-06-11 09:09:00,74.6,66.1,29.84,West,260,1.0,6.0,75,0.00,CLR,CLR,0.00,0.0,WeatherDisplay:10.37,2013-06-11 14:09:00,
2013-06-11 09:14:00,74.7,66.3,29.84,West,263,2.0,4.0,75,0.00,CLR,CLR,0.00,0.0,WeatherDisplay:10.37,2013-06-11 14:14:00,
2013-06-11 09:19:00,75.0,65.8,29.84,West,261,2.0,6.0,73,0.00,CLR,CLR,0.00,0.0,WeatherDisplay:10.37,2013-06-11 14:19:00,
2013-06-11 09:24:00,75.6,66.3,29.84,West,260,3.0,5.0,73,0.00,CLR,CLR,0.00,0.0,WeatherDisplay:10.37,2013-06-11 14:24:00,
2013-06-11 09:29:00,76.1,67.2,29.84,West,264,2.0,5.0,74,0.00,CLR,CLR,0.00,0.0,WeatherDisplay:10.37,2013-06-11 14:29:00,
2013-06-11 09:34:00,76.6,67.3,29.83,West,272,1.0,3.0,73,0.00,CLR,CLR,0.00,0.0,WeatherDisplay:10.37,2013-06-11 14:34:00,
2013-06-11 09:39:00,77.0,68.1,29.84,WSW,254,3.0,6.0,74,0.00,CLR,CLR,0.00,0.0,WeatherDisplay:10.37,2013-06-11 14:39:00,
2013-06-11 09:49:00,76.9,66.8,29.83,WSW,258,5.0,7.0,71,0.00,CLR,CLR,0.00,0.0,WeatherDisplay:10.37,2013-06-11 14:49:00,
2013-06-11 09:54:00,76.8,67.1,29.83,WSW,256,1.0,7.0,72,0.00,CLR,CLR,0.00,0.0,WeatherDisplay:10.37,2013-06-11 14:54:00,
2013-06-11 09:59:00,77.2,67.5,29.83,WSW,258,2.0,5.0,72,0.00,CLR,CLR,0.00,0.0,WeatherDisplay:10.37,2013-06-11 14:59:00,
2013-06-11 10:04:00,77.6,68.6,29.83,West,266,1.0,4.0,74,0.00,CLR,CLR,0.00,0.0,WeatherDisplay:10.37,2013-06-11 15:04:00,
2013-06-11 10:09:00,77.9,67.3,29.83,West,275,2.0,5.0,70,0.00,CLR,CLR,0.00,0.0,WeatherDisplay:10.37,2013-06-11 15:09:00,
2013-06-11 10:14:00,78.0,67.4,29.83,West,278,2.0,4.0,70,0.00,CLR,CLR,0.00,0.0,WeatherDisplay:10.37,2013-06-11 15:14:00,
2013-06-11 10:19:00,78.1,67.9,29.83,West,266,3.0,6.0,71,0.00,CLR,CLR,0.00,0.0,WeatherDisplay:10.37,2013-06-11 15:19:00,
2013-06-11 10:24:00,78.2,68.1,29.83,WSW,256,1.0,5.0,71,0.00,CLR,CLR,0.00,0.0,WeatherDisplay:10.37,2013-06-11 15:24:00,
2013-06-11 10:29:00,78.2,68.0,29.83,WSW,258,2.0,6.0,71,0.00,CLR,CLR,0.00,0.0,WeatherDisplay:10.37,2013-06-11 15:29:00,
2013-06-11 10:34:00,78.2,68.1,29.83,WSW,255,3.0,8.0,71,0.00,CLR,CLR,0.00,0.0,WeatherDisplay:10.37,2013-06-11 15:34:00,
2013-06-11 10:39:00,78.6,69.2,29.83,WSW,251,1.0,6.0,73,0.00,CLR,CLR,0.00,0.0,WeatherDisplay:10.37,2013-06-11 15:39:00,
2013-06-11 10:44:00,78.7,67.7,29.83,WSW,250,1.0,7.0,69,0.00,CLR,CLR,0.00,0.0,WeatherDisplay:10.37,2013-06-11 15:44:00,
2013-06-11 10:49:00,79.0,68.0,29.83,WSW,250,3.0,5.0,69,0.00,CLR,CLR,0.00,0.0,WeatherDisplay:10.37,2013-06-11 15:49:00,
2013-06-11 10:54:00,79.1,68.1,29.84,SW,228,2.0,5.0,69,0.00,CLR,CLR,0.00,0.0,WeatherDisplay:10.37,2013-06-11 15:54:00,
2013-06-11 10:59:00,79.2,66.4,29.83,WSW,255,2.0,6.0,65,0.00,CLR,CLR,0.00,0.0,WeatherDisplay:10.37,2013-06-11 15:59:00,
2013-06-11 11:04:00,79.4,67.5,29.83,West,280,1.0,4.0,67,0.00,CLR,CLR,0.00,0.0,WeatherDisplay:10.37,2013-06-11 16:04:00,
2013-06-11 11:09:00,79.7,67.3,29.83,WSW,251,2.0,5.0,66,0.00,CLR,CLR,0.00,0.0,WeatherDisplay:10.37,2013-06-11 16:09:00,
2013-06-11 11:14:00,80.0,68.0,29.83,WSW,250,5.0,7.0,67,0.00,CLR,CLR,0.00,0.0,WeatherDisplay:10.37,2013-06-11 16:14:00,
2013-06-11 11:19:00,79.9,68.8,29.83,WSW,237,2.0,7.0,69,0.00,CLR,CLR,0.00,0.0,WeatherDisplay:10.37,2013-06-11 16:19:00,
2013-06-11 11:29:00,80.2,66.9,29.83,SW,227,1.0,4.0,64,0.00,CLR,CLR,0.00,0.0,WeatherDisplay:10.37,2013-06-11 16:29:00,
2013-06-11 11:39:00,80.5,66.7,29.83,West,270,0.0,4.0,63,0.00,CLR,CLR,0.00,0.0,WeatherDisplay:10.37,2013-06-11 16:39:00,
2013-06-11 11:44:00,80.8,66.6,29.83,South,175,6.0,9.0,62,0.00,CLR,CLR,0.00,0.0,WeatherDisplay:10.37,2013-06-11 16:44:00,
2013-06-11 11:49:00,80.8,68.4,29.83,SSW,198,2.0,9.0,66,0.00,CLR,CLR,0.00,0.0,WeatherDisplay:10.37,2013-06-11 16:49:00,
2013-06-11 11:54:00,81.1,67.3,29.83,SW,220,3.0,6.0,63,0.00,CLR,CLR,0.00,0.0,WeatherDisplay:10.37,2013-06-11 16:54:00,
2013-06-11 11:59:00,81.0,67.2,29.83,SW,232,1.0,9.0,63,0.00,CLR,CLR,0.00,0.0,WeatherDisplay:10.37,2013-06-11 16:59:00,
2013-06-11 12:04:00,81.3,67.9,29.83,SW,235,3.0,8.0,64,0.00,CLR,CLR,0.00,0.0,WeatherDisplay:10.37,2013-06-11 17:04:00,
2013-06-11 12:09:00,81.4,67.2,29.82,SW,223,2.0,6.0,62,0.00,CLR,CLR,0.00,0.0,WeatherDisplay:10.37,2013-06-11 17:09:00,
2013-06-11 12:19:00,81.9,67.6,29.82,SW,226,1.0,6.0,62,0.00,CLR,CLR,0.00,0.0,WeatherDisplay:10.37,2013-06-11 17:19:00,
2013-06-11 12:24:00,82.1,67.8,29.81,SW,215,2.0,6.0,62,0.00,CLR,CLR,0.00,0.0,WeatherDisplay:10.37,2013-06-11 17:24:00,
2013-06-11 12:34:00,82.5,67.2,29.81,SSE,163,2.0,5.0,60,0.00,CLR,CLR,0.00,0.0,WeatherDisplay:10.37,2013-06-11 17:34:00,
2013-06-11 12:39:00,82.8,67.0,29.81,SSW,207,5.0,8.0,59,0.00,CLR,CLR,0.00,0.0,WeatherDisplay:10.37,2013-06-11 17:39:00,
2013-06-11 12:44:00,82.6,67.8,29.81,SW,229,2.0,7.0,61,0.00,CLR,CLR,0.00,0.0,WeatherDisplay:10.37,2013-06-11 17:44:00,
2013-06-11 12:49:00,82.7,66.9,29.80,SW,221,2.0,4.0,59,0.00,CLR,CLR,0.00,0.0,WeatherDisplay:10.37,2013-06-11 17:49:00,
2013-06-11 12:54:00,82.7,65.9,29.80,SSW,196,1.0,7.0,57,0.00,CLR,CLR,0.00,0.0,WeatherDisplay:10.37,2013-06-11 17:54:00,
2013-06-11 12:59:00,82.9,67.1,29.80,WSW,238,5.0,7.0,59,0.00,CLR,CLR,0.00,0.0,WeatherDisplay:10.37,2013-06-11 17:59:00,
2013-06-11 13:04:00,83.0,68.2,29.80,West,260,6.0,10.0,61,0.00,CLR,CLR,0.00,0.0,WeatherDisplay:10.37,2013-06-11 18:04:00,
2013-06-11 13:09:00,83.2,66.4,29.80,WSW,255,2.0,7.0,57,0.00,CLR,CLR,0.00,0.0,WeatherDisplay:10.37,2013-06-11 18:09:00,
2013-06-11 13:14:00,83.5,65.1,29.81,SW,235,1.0,7.0,54,0.00,CLR,CLR,0.00,0.0,WeatherDisplay:10.37,2013-06-11 18:14:00,
2013-06-11 13:19:00,83.8,65.4,29.80,SW,229,3.0,8.0,54,0.00,CLR,CLR,0.00,0.0,WeatherDisplay:10.37,2013-06-11 18:19:00,
2013-06-11 13:24:00,83.6,65.2,29.80,WSW,254,6.0,8.0,54,0.00,CLR,CLR,0.00,0.0,WeatherDisplay:10.37,2013-06-11 18:24:00,
2013-06-11 13:29:00,84.0,66.6,29.80,West,259,1.0,4.0,56,0.00,CLR,CLR,0.00,0.0,WeatherDisplay:10.37,2013-06-11 18:29:00,
2013-06-11 13:34:00,84.6,67.2,29.80,SW,236,1.0,6.0,56,0.00,CLR,CLR,0.00,0.0,WeatherDisplay:10.37,2013-06-11 18:34:00,
2013-06-11 13:39:00,84.6,65.6,29.80,SW,229,3.0,9.0,53,0.00,CLR,CLR,0.00,0.0,WeatherDisplay:10.37,2013-06-11 18:39:00,
2013-06-11 13:44:00,83.9,64.4,29.81,WSW,247,2.0,10.0,52,0.00,CLR,CLR,0.00,0.0,WeatherDisplay:10.37,2013-06-11 18:44:00,
2013-06-11 13:49:00,83.7,64.8,29.80,WSW,256,6.0,9.0,53,0.00,CLR,CLR,0.00,0.0,WeatherDisplay:10.37,2013-06-11 18:49:00,
2013-06-11 13:54:00,83.6,66.8,29.80,WSW,258,2.0,7.0,57,0.00,CLR,CLR,0.00,0.0,WeatherDisplay:10.37,2013-06-11 18:54:00,
2013-06-11 13:59:00,83.6,65.2,29.80,West,260,1.0,9.0,54,0.00,CLR,CLR,0.00,0.0,WeatherDisplay:10.37,2013-06-11 18:59:00,
2013-06-11 14:04:00,83.6,65.2,29.80,WSW,257,2.0,6.0,54,0.00,CLR,CLR,0.00,0.0,WeatherDisplay:10.37,2013-06-11 19:04:00,
2013-06-11 14:09:00,83.4,63.3,29.80,SW,225,2.0,6.0,51,0.00,CLR,CLR,0.00,0.0,WeatherDisplay:10.37,2013-06-11 19:09:00,
2013-06-11 14:14:00,83.1,66.3,29.79,SW,223,1.0,3.0,57,0.00,CLR,CLR,0.00,0.0,WeatherDisplay:10.37,2013-06-11 19:14:00,
2013-06-11 14:19:00,83.4,67.1,29.79,SW,231,1.0,3.0,58,0.00,CLR,CLR,0.00,0.0,WeatherDisplay:10.37,2013-06-11 19:19:00,
2013-06-11 14:24:00,83.7,65.8,29.79,SW,215,1.0,5.0,55,0.00,CLR,CLR,0.00,0.0,WeatherDisplay:10.37,2013-06-11 19:24:00,
2013-06-11 14:29:00,83.4,63.9,29.79,SSW,210,2.0,6.0,52,0.00,CLR,CLR,0.00,0.0,WeatherDisplay:10.37,2013-06-11 19:29:00,
2013-06-11 14:39:00,82.3,64.0,29.79,SW,214,2.0,6.0,54,0.00,CLR,CLR,0.00,0.0,WeatherDisplay:10.37,2013-06-11 19:39:00,
2013-06-11 14:44:00,81.8,61.9,29.79,SW,215,3.0,7.0,51,0.00,CLR,CLR,0.00,0.0,WeatherDisplay:10.37,2013-06-11 19:44:00,
2013-06-11 14:49:00,81.4,63.7,29.80,WSW,237,2.0,6.0,55,0.00,CLR,CLR,0.00,0.0,WeatherDisplay:10.37,2013-06-11 19:49:00,
2013-06-11 14:54:00,80.6,62.4,29.81,WSW,251,6.0,9.0,54,0.00,CLR,CLR,0.00,0.0,WeatherDisplay:10.37,2013-06-11 19:54:00,
2013-06-11 14:59:00,80.4,64.8,29.79,WSW,246,1.0,9.0,59,0.01,RA,RA,0.01,0.0,WeatherDisplay:10.37,2013-06-11 19:59:00,
2013-06-11 15:04:00,79.1,66.3,29.80,SW,216,6.0,12.0,65,0.02,RA,RA,0.03,0.0,WeatherDisplay:10.37,2013-06-11 20:04:00,
2013-06-11 15:09:00,76.8,67.9,29.80,SSE,161,2.0,14.0,74,0.00,RA,RA,0.03,0.0,WeatherDisplay:10.37,2013-06-11 20:09:00,
2013-06-11 15:14:00,75.4,65.3,29.79,SSE,149,2.0,8.0,71,0.00,CLR,CLR,0.03,0.0,WeatherDisplay:10.37,2013-06-11 20:14:00,
2013-06-11 15:19:00,74.8,66.7,29.79,SSE,152,1.0,4.0,76,0.01,RA,RA,0.04,0.0,WeatherDisplay:10.37,2013-06-11 20:19:00,
2013-06-11 15:24:00,75.5,66.7,29.78,SSE,158,3.0,6.0,74,0.00,RA,RA,0.04,0.0,WeatherDisplay:10.37,2013-06-11 20:24:00,
2013-06-11 15:29:00,76.8,67.9,29.77,SSE,150,3.0,6.0,74,0.00,CLR,CLR,0.04,0.0,WeatherDisplay:10.37,2013-06-11 20:29:00,
2013-06-11 15:34:00,78.5,68.3,29.76,SE,136,3.0,7.0,71,0.00,CLR,CLR,0.04,0.0,WeatherDisplay:10.37,2013-06-11 20:34:00,
2013-06-11 15:39:00,79.5,68.0,29.75,SE,130,3.0,5.0,68,0.00,CLR,CLR,0.04,0.0,WeatherDisplay:10.37,2013-06-11 20:39:00,
2013-06-11 15:44:00,80.3,66.6,29.75,SE,137,3.0,7.0,63,0.00,CLR,CLR,0.04,0.0,WeatherDisplay:10.37,2013-06-11 20:44:00,
2013-06-11 15:49:00,81.0,67.7,29.75,SE,145,5.0,6.0,64,0.00,CLR,CLR,0.04,0.0,WeatherDisplay:10.37,2013-06-11 20:49:00,
2013-06-11 15:54:00,81.6,67.7,29.75,SE,141,2.0,5.0,63,0.00,CLR,CLR,0.04,0.0,WeatherDisplay:10.37,2013-06-11 20:54:00,
2013-06-11 15:59:00,82.0,68.6,29.75,SE,139,2.0,5.0,64,0.00,CLR,CLR,0.04,0.0,WeatherDisplay:10.37,2013-06-11 20:59:00,
2013-06-11 16:04:00,82.1,67.8,29.76,SE,144,1.0,4.0,62,0.00,CLR,CLR,0.04,0.0,WeatherDisplay:10.37,2013-06-11 21:04:00,
2013-06-11 16:09:00,82.0,66.3,29.76,SSE,147,2.0,4.0,59,0.00,CLR,CLR,0.04,0.0,WeatherDisplay:10.37,2013-06-11 21:09:00,
2013-06-11 16:14:00,81.6,66.4,29.76,SE,138,0.0,2.0,60,0.00,CLR,CLR,0.04,0.0,WeatherDisplay:10.37,2013-06-11 21:14:00,
2013-06-11 16:19:00,81.2,65.0,29.76,SE,135,0.0,1.0,58,0.00,CLR,CLR,0.04,0.0,WeatherDisplay:10.37,2013-06-11 21:19:00,
2013-06-11 16:24:00,80.9,65.2,29.76,SE,135,0.0,0.0,59,0.00,CLR,CLR,0.04,0.0,WeatherDisplay:10.37,2013-06-11 21:24:00,
2013-06-11 16:29:00,80.6,67.7,29.77,SE,135,1.0,2.0,65,0.00,CLR,CLR,0.04,0.0,WeatherDisplay:10.37,2013-06-11 21:29:00,
2013-06-11 16:34:00,79.8,67.5,29.77,SE,135,0.0,2.0,66,0.00,CLR,CLR,0.04,0.0,WeatherDisplay:10.37,2013-06-11 21:34:00,
2013-06-11 16:39:00,79.3,69.1,29.77,SE,135,0.0,1.0,71,0.00,CLR,CLR,0.04,0.0,WeatherDisplay:10.37,2013-06-11 21:39:00,
2013-06-11 16:49:00,77.9,68.5,29.78,SE,135,0.0,2.0,73,0.00,CLR,CLR,0.04,0.0,WeatherDisplay:10.37,2013-06-11 21:49:00,
2013-06-11 16:54:00,77.7,69.9,29.77,SE,135,0.0,1.0,77,0.00,CLR,CLR,0.04,0.0,WeatherDisplay:10.37,2013-06-11 21:54:00,
2013-06-11 16:59:00,77.7,70.7,29.75,SE,135,1.0,2.0,79,0.00,CLR,CLR,0.04,0.0,WeatherDisplay:10.37,2013-06-11 21:59:00,
2013-06-11 17:04:00,77.7,68.7,29.75,SE,135,2.0,3.0,74,0.00,CLR,CLR,0.04,0.0,WeatherDisplay:10.37,2013-06-11 22:04:00,
2013-06-11 17:09:00,78.1,68.3,29.75,SE,135,1.0,3.0,72,0.00,CLR,CLR,0.04,0.0,WeatherDisplay:10.37,2013-06-11 22:09:00,
2013-06-11 17:19:00,79.5,68.4,29.75,SE,135,0.0,1.0,69,0.00,CLR,CLR,0.04,0.0,WeatherDisplay:10.37,2013-06-11 22:19:00,
2013-06-11 17:29:00,81.4,67.1,29.76,SE,135,0.0,3.0,62,0.00,CLR,CLR,0.04,0.0,WeatherDisplay:10.37,2013-06-11 22:29:00,
2013-06-11 17:34:00,82.3,68.0,29.76,SE,135,0.0,2.0,62,0.00,CLR,CLR,0.04,0.0,WeatherDisplay:10.37,2013-06-11 22:34:00,
2013-06-11 17:39:00,83.0,66.7,29.75,SE,135,1.0,3.0,58,0.00,CLR,CLR,0.04,0.0,WeatherDisplay:10.37,2013-06-11 22:39:00,
2013-06-11 17:44:00,83.5,65.6,29.75,SE,135,1.0,3.0,55,0.00,CLR,CLR,0.04,0.0,WeatherDisplay:10.37,2013-06-11 22:44:00,
2013-06-11 17:49:00,83.7,66.8,29.75,SE,135,0.0,3.0,57,0.00,CLR,CLR,0.04,0.0,WeatherDisplay:10.37,2013-06-11 22:49:00,
2013-06-11 17:54:00,83.9,67.0,29.75,SE,143,2.0,3.0,57,0.00,CLR,CLR,0.04,0.0,WeatherDisplay:10.37,2013-06-11 22:54:00,
2013-06-11 17:59:00,83.9,68.5,29.74,SE,143,2.0,4.0,60,0.00,CLR,CLR,0.04,0.0,WeatherDisplay:10.37,2013-06-11 22:59:00,
2013-06-11 18:04:00,83.9,66.0,29.73,SE,143,2.0,5.0,55,0.00,CLR,CLR,0.04,0.0,WeatherDisplay:10.37,2013-06-11 23:04:00,
2013-06-11 18:09:00,83.9,67.0,29.73,SSE,148,3.0,6.0,57,0.00,CLR,CLR,0.04,0.0,WeatherDisplay:10.37,2013-06-11 23:09:00,
2013-06-11 18:14:00,83.3,67.0,29.73,SSE,152,2.0,5.0,58,0.00,CLR,CLR,0.04,0.0,WeatherDisplay:10.37,2013-06-11 23:14:00,
2013-06-11 18:19:00,82.6,67.3,29.73,SSE,156,3.0,4.0,60,0.00,CLR,CLR,0.04,0.0,WeatherDisplay:10.37,2013-06-11 23:19:00,
2013-06-11 18:24:00,82.2,66.9,29.73,SSE,154,2.0,5.0,60,0.00,CLR,CLR,0.04,0.0,WeatherDisplay:10.37,2013-06-11 23:24:00,
2013-06-11 18:29:00,82.5,67.7,29.72,SSE,153,2.0,5.0,61,0.00,CLR,CLR,0.04,0.0,WeatherDisplay:10.37,2013-06-11 23:29:00,
2013-06-11 18:34:00,82.4,68.1,29.73,SSE,153,2.0,6.0,62,0.00,CLR,CLR,0.04,0.0,WeatherDisplay:10.37,2013-06-11 23:34:00,
2013-06-11 18:39:00,82.1,67.7,29.73,SSE,154,5.0,6.0,62,0.00,CLR,CLR,0.04,0.0,WeatherDisplay:10.37,2013-06-11 23:39:00,
2013-06-11 18:44:00,81.8,68.4,29.73,SSE,155,3.0,6.0,64,0.00,CLR,CLR,0.04,0.0,WeatherDisplay:10.37,2013-06-11 23:44:00,
2013-06-11 18:49:00,81.5,67.7,29.73,SSE,156,3.0,6.0,63,0.00,CLR,CLR,0.04,0.0,WeatherDisplay:10.37,2013-06-11 23:49:00,
2013-06-11 18:54:00,81.3,68.4,29.72,SSE,155,3.0,6.0,65,0.00,CLR,CLR,0.04,0.0,WeatherDisplay:10.37,2013-06-11 23:54:00,
2013-06-11 18:59:00,81.1,69.1,29.73,SSE,152,2.0,5.0,67,0.00,CLR,CLR,0.04,0.0,WeatherDisplay:10.37,2013-06-11 23:59:00,
2013-06-11 19:04:00,80.8,68.9,29.73,SSE,155,2.0,5.0,67,0.00,CLR,CLR,0.04,0.0,WeatherDisplay:10.37,2013-06-12 00:04:00,
2013-06-11 19:09:00,80.7,69.2,29.73,SSE,150,2.0,4.0,68,0.00,CLR,CLR,0.04,0.0,WeatherDisplay:10.37,2013-06-12 00:09:00,
2013-06-11 19:14:00,80.4,69.7,29.73,SE,144,1.0,3.0,70,0.00,CLR,CLR,0.04,0.0,WeatherDisplay:10.37,2013-06-12 00:14:00,
2013-06-11 19:19:00,80.4,70.5,29.73,SSE,147,1.0,2.0,72,0.00,CLR,CLR,0.04,0.0,WeatherDisplay:10.37,2013-06-12 00:19:00,
2013-06-11 19:29:00,80.8,69.2,29.73,SSW,204,2.0,4.0,68,0.00,CLR,CLR,0.04,0.0,WeatherDisplay:10.37,2013-06-12 00:29:00,
2013-06-11 19:34:00,80.7,69.6,29.73,SSW,210,1.0,4.0,69,0.00,CLR,CLR,0.04,0.0,WeatherDisplay:10.37,2013-06-12 00:34:00,
2013-06-11 19:39:00,80.4,69.3,29.73,SSW,212,2.0,4.0,69,0.00,CLR,CLR,0.04,0.0,WeatherDisplay:10.37,2013-06-12 00:39:00,
2013-06-11 19:44:00,80.2,69.5,29.73,SW,214,3.0,6.0,70,0.00,CLR,CLR,0.04,0.0,WeatherDisplay:10.37,2013-06-12 00:44:00,
2013-06-11 19:49:00,80.1,69.4,29.72,SW,215,2.0,5.0,70,0.00,CLR,CLR,0.04,0.0,WeatherDisplay:10.37,2013-06-12 00:49:00,
2013-06-11 19:54:00,79.8,69.6,29.72,SW,216,3.0,5.0,71,0.00,CLR,CLR,0.04,0.0,WeatherDisplay:10.37,2013-06-12 00:54:00,
2013-06-11 19:59:00,79.6,69.8,29.72,SW,216,2.0,5.0,72,0.00,CLR,CLR,0.04,0.0,WeatherDisplay:10.37,2013-06-12 00:59:00,
2013-06-11 20:04:00,79.6,69.8,29.71,SW,217,2.0,5.0,72,0.00,CLR,CLR,0.04,0.0,WeatherDisplay:10.37,2013-06-12 01:04:00,
2013-06-11 20:09:00,79.6,69.7,29.71,SW,219,2.0,5.0,72,0.00,CLR,CLR,0.04,0.0,WeatherDisplay:10.37,2013-06-12 01:09:00,
2013-06-11 20:14:00,79.4,70.0,29.71,SW,222,0.0,3.0,73,0.00,CLR,CLR,0.04,0.0,WeatherDisplay:10.37,2013-06-12 01:14:00,
2013-06-11 20:19:00,79.2,69.8,29.72,SW,221,0.0,3.0,73,0.00,CLR,CLR,0.04,0.0,WeatherDisplay:10.37,2013-06-12 01:19:00,
2013-06-11 20:24:00,79.0,69.6,29.73,SW,222,1.0,3.0,73,0.00,CLR,CLR,0.04,0.0,WeatherDisplay:10.37,2013-06-12 01:24:00,
2013-06-11 20:29:00,78.9,69.5,29.73,WSW,243,1.0,3.0,73,0.00,CLR,CLR,0.04,0.0,WeatherDisplay:10.37,2013-06-12 01:29:00,
2013-06-11 20:34:00,78.7,69.8,29.73,West,259,1.0,2.0,74,0.00,CLR,CLR,0.04,0.0,WeatherDisplay:10.37,2013-06-12 01:34:00,
2013-06-11 20:44:00,78.3,70.1,29.74,West,265,1.0,2.0,76,0.00,CLR,CLR,0.04,0.0,WeatherDisplay:10.37,2013-06-12 01:44:00,
2013-06-11 20:49:00,77.9,70.1,29.74,West,265,0.0,2.0,77,0.00,CLR,CLR,0.04,0.0,WeatherDisplay:10.37,2013-06-12 01:49:00,
2013-06-11 20:59:00,77.1,69.7,29.75,West,265,0.0,1.0,78,0.00,CLR,CLR,0.04,0.0,WeatherDisplay:10.37,2013-06-12 01:59:00,
2013-06-11 21:04:00,76.7,69.7,29.75,West,265,0.0,0.0,79,0.00,CLR,CLR,0.04,0.0,WeatherDisplay:10.37,2013-06-12 02:04:00,
2013-06-11 21:09:00,76.4,69.7,29.75,West,265,0.0,0.0,80,0.00,CLR,CLR,0.04,0.0,WeatherDisplay:10.37,2013-06-12 02:09:00,
2013-06-11 21:14:00,76.0,69.4,29.75,West,265,0.0,1.0,80,0.00,CLR,CLR,0.04,0.0,WeatherDisplay:10.37,2013-06-12 02:14:00,
2013-06-11 21:19:00,75.7,69.5,29.76,West,265,0.0,1.0,81,0.00,CLR,CLR,0.04,0.0,WeatherDisplay:10.37,2013-06-12 02:19:00,
2013-06-11 21:29:00,75.3,69.4,29.76,West,265,0.0,0.0,82,0.00,CLR,CLR,0.04,0.0,WeatherDisplay:10.37,2013-06-12 02:29:00,
2013-06-11 21:34:00,74.9,69.1,29.76,West,265,0.0,0.0,82,0.00,CLR,CLR,0.04,0.0,WeatherDisplay:10.37,2013-06-12 02:34:00,
2013-06-11 21:39:00,74.6,69.4,29.76,West,265,0.0,0.0,84,0.00,CLR,CLR,0.04,0.0,WeatherDisplay:10.37,2013-06-12 02:39:00,
2013-06-11 21:44:00,74.4,69.2,29.76,West,265,0.0,0.0,84,0.00,CLR,CLR,0.04,0.0,WeatherDisplay:10.37,2013-06-12 02:44:00,
2013-06-11 21:49:00,73.9,68.7,29.76,West,265,0.0,0.0,84,0.00,CLR,CLR,0.04,0.0,WeatherDisplay:10.37,2013-06-12 02:49:00,
2013-06-11 21:54:00,73.4,69.0,29.76,West,265,0.0,0.0,86,0.00,CLR,CLR,0.04,0.0,WeatherDisplay:10.37,2013-06-12 02:54:00,
2013-06-11 21:59:00,73.1,69.0,29.76,West,265,0.0,0.0,87,0.00,CLR,CLR,0.04,0.0,WeatherDisplay:10.37,2013-06-12 02:59:00,
2013-06-11 22:04:00,73.1,69.3,29.76,West,265,0.0,0.0,88,0.00,CLR,CLR,0.04,0.0,WeatherDisplay:10.37,2013-06-12 03:04:00,
2013-06-11 22:09:00,73.1,69.0,29.76,West,265,0.0,0.0,87,0.00,CLR,CLR,0.04,0.0,WeatherDisplay:10.37,2013-06-12 03:09:00,
2013-06-11 22:14:00,73.2,69.0,29.76,West,265,0.0,0.0,87,0.00,CLR,CLR,0.04,0.0,WeatherDisplay:10.37,2013-06-12 03:14:00,
2013-06-11 22:19:00,73.0,68.9,29.75,West,265,0.0,0.0,87,0.00,CLR,CLR,0.04,0.0,WeatherDisplay:10.37,2013-06-12 03:19:00,
2013-06-11 22:29:00,72.6,68.8,29.75,West,265,0.0,0.0,88,0.00,CLR,CLR,0.04,0.0,WeatherDisplay:10.37,2013-06-12 03:29:00,
2013-06-11 22:39:00,72.1,68.3,29.74,West,265,0.0,1.0,88,0.00,CLR,CLR,0.04,0.0,WeatherDisplay:10.37,2013-06-12 03:39:00,
2013-06-11 22:49:00,71.7,68.6,29.74,WSW,256,0.0,1.0,90,0.00,CLR,CLR,0.04,0.0,WeatherDisplay:10.37,2013-06-12 03:49:00,
2013-06-11 22:54:00,71.6,68.5,29.74,WSW,239,1.0,2.0,90,0.00,CLR,CLR,0.04,0.0,WeatherDisplay:10.37,2013-06-12 03:54:00,
2013-06-11 22:59:00,71.5,68.8,29.75,South,184,0.0,2.0,91,0.00,CLR,CLR,0.04,0.0,WeatherDisplay:10.37,2013-06-12 03:59:00,
2013-06-11 23:04:00,71.5,68.4,29.74,SE,144,0.0,0.0,90,0.00,CLR,CLR,0.04,0.0,WeatherDisplay:10.37,2013-06-12 04:04:00,
2013-06-11 23:09:00,71.5,68.4,29.74,SE,144,0.0,1.0,90,0.00,CLR,CLR,0.04,0.0,WeatherDisplay:10.37,2013-06-12 04:09:00,
2013-06-11 23:14:00,71.4,68.3,29.73,SE,144,0.0,1.0,90,0.00,CLR,CLR,0.04,0.0,WeatherDisplay:10.37,2013-06-12 04:14:00,
2013-06-11 23:19:00,71.4,68.6,29.73,SE,144,0.0,2.0,91,0.00,CLR,CLR,0.04,0.0,WeatherDisplay:10.37,2013-06-12 04:19:00,
2013-06-11 23:24:00,71.5,68.7,29.74,SE,144,1.0,2.0,91,0.00,CLR,CLR,0.04,0.0,WeatherDisplay:10.37,2013-06-12 04:24:00,
2013-06-11 23:29:00,71.8,69.0,29.75,SE,143,0.0,3.0,91,0.00,CLR,CLR,0.04,0.0,WeatherDisplay:10.37,2013-06-12 04:29:00,
2013-06-11 23:34:00,71.8,68.7,29.74,SE,142,0.0,1.0,90,0.00,CLR,CLR,0.04,0.0,WeatherDisplay:10.37,2013-06-12 04:34:00,
2013-06-11 23:39:00,71.7,68.6,29.73,SE,142,0.0,1.0,90,0.00,CLR,CLR,0.04,0.0,WeatherDisplay:10.37,2013-06-12 04:39:00,
2013-06-11 23:44:00,71.7,68.9,29.74,SE,142,0.0,0.0,91,0.00,CLR,CLR,0.04,0.0,WeatherDisplay:10.37,2013-06-12 04:44:00,
2013-06-11 23:49:00,71.7,68.9,29.75,SE,142,1.0,2.0,91,0.00,CLR,CLR,0.04,0.0,WeatherDisplay:10.37,2013-06-12 04:49:00,
2013-06-11 23:54:00,71.6,68.5,29.75,SE,142,0.0,2.0,90,0.00,CLR,CLR,0.04,0.0,WeatherDisplay:10.37,2013-06-12 04:54:00,
2013-06-11 23:59:00,71.5,68.4,29.74,SE,142,0.0,0.0,90,0.00,RA,RA,0.00,0.0,WeatherDisplay:10.37,2013-06-12 04:59:00,